CW0570 Weather Reports


Display with metric or nautical units.
time (UTC)temp
F
wind
direction
speed
MPH
gust
MPH
rain 1hr
in
rain 24hr
in
rain mn
in
humidity
%
barometer
mb
20260906181602 62 13 1.0 6.0 0.00 0.00 0.00 74 1018.4
20260906180058 62 24 2.0 6.0 0.00 0.00 0.00 74 1018.5
20260906174606 61 286 0.0 2.0 0.00 0.00 0.00 82 1018.5
20260906173049 57 286 0.0 2.0 0.00 0.00 0.00 84 1018.6
20260906171544 54 286 0.0 2.0 0.00 0.00 0.00 91 1018.7
20260906170040 52 286 0.0 2.0 0.00 0.00 0.00 92 1018.8
20260906164537 51 277 0.0 3.0 0.00 0.00 0.00 93 1018.9
20260906163045 50 244 0.0 2.0 0.00 0.00 0.00 93 1019.1
20260906161536 50 244 0.0 2.0 0.00 0.00 0.00 94 1019.1
20260906160031 49 244 0.0 2.0 0.00 0.00 0.00 94 1019.2
20260906154531 49 244 0.0 2.0 0.00 0.00 0.00 94 1019.2
20260906153029 49 231 0.0 2.0 0.00 0.00 0.00 95 1019.2
20260906151528 49 136 0.0 2.0 0.00 0.00 0.00 95 1019.2
20260906150028 48 270 0.0 2.0 0.00 0.00 0.00 96 1019.0
20260906144528 48 150 0.0 2.0 0.00 0.00 0.00 96 1019.0
20260906143024 48 150 0.0 2.0 0.00 0.00 0.00 96 1018.9
20260906141522 48 150 0.0 2.0 0.00 0.00 0.00 96 1018.6
20260906140021 48 227 0.0 2.0 0.00 0.00 0.00 96 1018.6
20260906134519 48 227 0.0 2.0 0.00 0.00 0.00 96 1018.6
20260906133017 48 227 0.0 2.0 0.00 0.00 0.00 96 1018.4
20260906131516 48 227 0.0 2.0 0.00 0.00 0.00 96 1018.3
20260906130017 48 23 0.0 0.0 0.00 0.00 0.00 96 1018.2
20260906124519 49 23 0.0 0.0 0.00 0.00 0.00 97 1018.2
20260906123031 49 23 0.0 0.0 0.00 0.00 0.00 97 1018.1
20260906121512 49 23 0.0 2.0 0.00 0.00 0.00 97 1018.2
20260906120012 49 23 0.0 0.0 0.00 0.00 0.00 97 1018.3
20260906114517 49 23 0.0 0.0 0.00 0.00 0.00 97 1018.3
20260906113013 49 23 0.0 0.0 0.00 0.00 0.00 97 1018.3
20260906111509 49 23 0.0 0.0 0.00 0.00 0.00 97 1018.3
20260906110007 48 23 0.0 0.0 0.00 0.00 0.00 97 1018.1
20260906104505 48 23 0.0 0.0 0.00 0.00 0.00 97 1018.2
20260906103005 48 23 0.0 0.0 0.00 0.00 0.00 97 1017.9
20260906101504 48 23 0.0 0.0 0.00 0.00 0.00 97 1017.9
20260906100003 48 23 0.0 0.0 0.00 0.00 0.00 97 1017.8
20260906094502 48 23 0.0 0.0 0.00 0.00 0.00 96 1017.9
20260906093106 48 23 0.0 0.0 0.00 0.00 0.00 96 1018.0
20260906091604 48 23 0.0 0.0 0.00 0.00 0.00 96 1018.1
20260906090113 48 23 0.0 0.0 0.00 0.00 0.00 96 1018.1
20260906084609 48 23 0.0 0.0 0.00 0.00 0.00 96 1018.0
20260906083056 48 23 0.0 0.0 0.00 0.00 0.00 96 1018.0
20260906081557 49 23 0.0 0.0 0.00 0.00 0.00 96 1018.1
20260906080056 49 23 0.0 0.0 0.00 0.00 0.00 96 1018.1
20260906074601 49 23 0.0 0.0 0.00 0.00 0.00 96 1018.1
20260906073058 49 23 0.0 0.0 0.00 0.00 0.00 95 1018.1
20260906071550 49 23 0.0 0.0 0.00 0.00 0.00 95 1018.1
20260906070056 50 23 0.0 0.0 0.00 0.00 0.00 95 1018.0
20260906064546 50 23 0.0 0.0 0.00 0.00 0.00 94 1017.9
20260906063045 50 23 0.0 0.0 0.00 0.00 0.00 94 1017.8
20260906061558 51 23 0.0 0.0 0.00 0.00 0.00 94 1017.8
20260906060041 51 23 0.0 0.0 0.00 0.00 0.00 93 1017.8
20260906054539 52 23 0.0 0.0 0.00 0.00 0.00 93 1017.8
20260906053044 52 23 0.0 0.0 0.00 0.00 0.00 92 1017.8
20260906051538 53 23 0.0 0.0 0.00 0.00 0.00 92 1018.0
20260906050048 54 23 0.0 0.0 0.00 0.00 0.00 91 1017.9
20260906044537 55 23 0.0 0.0 0.00 0.00 0.00 89 1017.9
20260906043045 56 23 0.0 0.0 0.00 0.00 0.00 89 1017.8
20260906041537 56 23 0.0 0.0 0.00 0.00 0.00 87 1017.7
20260906040043 57 23 0.0 0.0 0.00 0.00 0.00 87 1017.3
20260906034536 58 23 0.0 2.0 0.00 0.00 0.00 85 1017.1
20260906033037 58 321 0.0 2.0 0.00 0.00 0.00 84 1017.0
20260906031535 59 321 0.0 2.0 0.00 0.00 0.00 82 1016.9
20260906030036 59 349 0.0 5.0 0.00 0.00 0.00 80 1016.8
20260906024536 60 355 0.0 2.0 0.00 0.00 0.00 81 1016.7
20260906023034 61 345 0.0 2.0 0.00 0.00 0.00 77 1016.7
20260906021532 61 345 0.0 2.0 0.00 0.00 0.00 78 1016.7
20260906020032 63 355 0.0 3.0 0.00 0.00 0.00 73 1016.7
20260906014542 65 84 0.0 2.0 0.00 0.00 0.00 72 1016.5
20260906013033 67 32 1.0 5.0 0.00 0.00 0.00 60 1016.4
20260906011535 68 360 2.0 5.0 0.00 0.00 0.00 58 1016.3
20260906010030 70 360 1.0 3.0 0.00 0.00 0.00 60 1016.3
20260906004530 69 27 0.0 4.0 0.00 0.00 0.00 61 1016.2
20260906003029 70 350 1.0 4.0 0.00 0.00 0.00 60 1016.2
20260906001528 69 360 2.0 6.0 0.00 0.00 0.00 63 1016.2
20260906000027 69 323 0.0 5.0 0.00 0.00 0.00 63 1016.1
20260905234526 68 279 1.0 4.0 0.00 0.00 0.00 64 1016.2
20260905233125 68 11 1.0 6.0 0.00 0.00 0.00 61 1016.2
20260905231525 67 110 1.0 8.0 0.00 0.00 0.00 65 1016.4
20260905230024 67 237 1.0 6.0 0.00 0.00 0.00 66 1016.4
20260905224526 67 146 1.0 6.0 0.00 0.00 0.00 64 1016.5
20260905223032 69 229 1.0 9.0 0.00 0.00 0.00 62 1016.3
20260905221523 71 173 1.0 8.0 0.00 0.00 0.00 61 1015.8
20260905220024 72 128 2.0 6.0 0.00 0.00 0.00 60 1015.8
20260905214521 72 230 1.0 8.0 0.00 0.00 0.00 59 1015.8
20260905213020 72 250 0.0 9.0 0.00 0.00 0.00 64 1015.7
20260905211522 72 117 2.0 7.0 0.00 0.00 0.00 62 1015.6
20260905210018 72 327 2.0 6.0 0.00 0.00 0.00 62 1015.7
20260905204518 72 254 4.0 10.0 0.00 0.00 0.00 65 1015.6
20260905203017 72 213 1.0 5.0 0.00 0.00 0.00 67 1015.7
20260905201520 72 117 1.0 8.0 0.00 0.00 0.00 67 1015.6
20260905200016 72 252 2.0 7.0 0.00 0.00 0.00 67 1015.5
20260905194514 72 317 1.0 8.0 0.00 0.00 0.00 67 1015.7
20260905193012 72 248 3.0 7.0 0.00 0.00 0.00 64 1015.7
20260905191512 71 134 2.0 4.0 0.00 0.00 0.00 62 1015.8
20260905190019 70 277 0.0 2.0 0.00 0.00 0.00 65 1016.0
20260905184504 69 32 0.0 2.0 0.00 0.00 0.00 64 1016.1
20260905183124 68 144 0.0 2.0 0.00 0.00 0.00 73 1016.2